Tracking 23764 objects as of 17-Oct-2021
HD Live streaming from Space Station
objects crossing your sky now

CZ-3A DEB

Track CZ-3A DEB now!


NORAD ID: 35551
Int'l Code: 2007-003K
Perigee: 661.0 km
Apogee: 37,294.7 km
Inclination: 25.1 °
Period: 669.4 minutes
Semi major axis: 25348 km
RCS: 0.2188 m2 (medium)
Launch date: February 2, 2007
Source: People's Republic of China (PRC)
Launch site: Xichang Space Center, China (XSC)

Note: This is SATELLITE DEBRIS
aabbcc
Your satellite tracking list
Your tracking list is empty




NASA's NSSDC Master Catalog

Two Line Element Set (TLE):
1 35551U 07003K   21271.08709594  .00000325  00000-0  11273-1 0  9999
2 35551  25.1167  72.4619 7225907 260.6669  18.7477  2.15112315107215
Source of the keplerian elements: AFSPC